Tracking 31027 objects as of 19-Jul-2025
HD Live streaming from Space Station
objects crossing your sky now

CZ-4B DEB

Track CZ-4B DEB now!
10-day predictions


NORAD ID: 38310
Int'l Code: 2011-079D
Perigee: 629.0 km
Apogee: 779.1 km
Inclination: 98.7 °
Period: 98.7 minutes
Semi major axis: 7075 km
RCS: 0.0012 m2 (small)
Launch date: December 22, 2011
Source: People's Republic of China (PRC)
Launch site: Taiyaun Space Center, China (TSC)

Note: This is SATELLITE DEBRIS
Your satellite tracking list
STARLINK-1578
Track 1 satellite(s)




NASA's NSSDC Master Catalog

Two Line Element Set (TLE):
1 38310U 11079D   25199.27717784  .00002146  00000-0  43513-3 0  9994
2 38310  98.6755 127.8428 0106081 136.1808  16.3534 14.58854462713732
Source of the keplerian elements: AFSPC